Location: Quedlinburg
(51.7921°N, 11.1414°E)
Time: 12:32:09
(UTC+02:00)

RS-15 - Pass Details

Date: 17 March 2026
Orbit: 1893 x 2152 km, 64.8° (Epoch: 22 April)

Event Time Altitude Azimuth Distance (km) Brightness Sun altitude
Rises 00:31:02 0° 283° (WNW) 5,303 10.4 -39.6°
Reaches altitude 10° 00:34:35 10° 290° (WNW) 4,326 10.0 -39.6°
Maximum altitude 00:45:02 43° 0° (N) 2,594 8.9 -39.4°
Drops below altitude 10° 00:55:56 10° 70° (ENE) 4,511 10.2 -39.2°
Sets 00:59:44 0° 78° (ENE) 5,547 10.7 -39.1°
